TIME,�g��[���C[MJ/h],����[MJ/h],�Ɩ�[MJ/h],�~�[[MJ/h],�①��[MJ/h],��y���[MJ/h],�Ǝ��q��[MJ/h],���̑��s��[MJ/h],�u�����`������[MJ/h]
2004/10/1 0:00,0.09648,0,0.648,0.02592,0.5256,0.42192,0,0,-0.12384
2004/10/1 0:15,0.108,0,0.19152,0.02448,0.53856,0.39744,0.03888,0,-0.05472
2004/10/1 0:30,0.108,0,0.19296,0.02736,0.5688,0.28512,0,0,-0.03312
2004/10/1 0:45,0.0864,0,0.19008,0.03456,0.54,0.25632,0.03024,0,-0.03024
2004/10/1 1:00,0,0,0.18864,0.0216,0.53568,0.24768,0,0,-0.00432
2004/10/1 1:15,0,0,0.17568,0.02448,0.5184,0.23328,0.03168,0,0
2004/10/1 1:30,0,0,0.17136,0.0216,0.51408,0.23328,0.03744,0,0.00432
2004/10/1 1:45,0,0,0.1728,0.02448,0.2376,0.23472,0,0,0.04176
2004/10/1 2:00,0,0,0.1728,0.0216,0.02016,0.23328,0.036,0,0.06768
2004/10/1 2:15,0,0,0.1728,0.02448,0.50688,0.23328,0,0,0.01152
2004/10/1 2:30,0,0,0.17424,0.02736,0.50832,0.23184,0.03456,0,0.00144
2004/10/1 2:45,0,0,0.1728,0.0288,0.19152,0.23184,0,0,0.0432
2004/10/1 3:00,0,0,0.16992,0.0216,0.0432,0.23328,0.03456,0,0.0576
2004/10/1 3:15,0,0,0.17712,0.03168,0.4968,0.23184,0.03168,0,0.00432
2004/10/1 3:30,0,0,0.1728,0.036,0.48672,0.23328,0,0,0.0072
2004/10/1 3:45,0,0,0.1728,0.0216,0,0.23472,0.036,0,0.06048
2004/10/1 4:00,0,0,0.1728,0.03024,0.23328,0.23472,0,0,0.04608
2004/10/1 4:15,0,0,0.18,0.0288,0.49248,0.23328,0.0288,0,0.00432
2004/10/1 4:30,0,0,0.16704,0.0216,0.23904,0.23328,0.0288,0,0.03312
2004/10/1 4:45,0,0,0.16992,0.0216,0,0.23328,0.00288,0,0.06336
2004/10/1 5:00,0,0,0.17568,0.03024,0.49104,0.23472,0.03312,0,0
2004/10/1 5:15,0,0,0.17856,0.02304,0.43344,0.23184,0.03024,0,0.01728
2004/10/1 5:30,0,0,0.1728,0.0216,0,0.23328,0,0,0.06624
2004/10/1 5:45,0,0,0.17136,0.02448,0.27216,0.23472,0.036,0,0.03168
2004/10/1 6:00,0,0,0.1728,0.02592,0.49248,0.23472,0,0,0.01008
2004/10/1 6:15,0,0,0.26352,0.0216,0.12384,0.23328,0.03024,0,0.04608
2004/10/1 6:30,0.13104,0,1.0296,2.48112,0.11232,0.23328,0.03312,0,-0.09072
2004/10/1 6:45,0.0288,0,0.87552,1.78128,0.53712,0.2304,0,0,-0.12816
2004/10/1 7:00,0,0,0.89712,1.46736,0.49824,0.2376,0.03456,0,-0.06192
2004/10/1 7:15,0.036,0,0.83952,0.08064,0.1296,0.23616,0.03456,0,-0.00288
2004/10/1 7:30,0,0,0.84672,0.07632,0.08784,0.3672,0.34848,0,-0.04896
2004/10/1 7:45,0,0,1.15488,0.03456,0.5112,0.40752,0.57312,0,-0.17712
2004/10/1 8:00,0,0,0.85824,0.03024,0.35712,0.4032,0.144,0,-0.0864
2004/10/1 8:15,0,0,0.52704,0.0216,0,0.19872,0.03168,0,0.03168
2004/10/1 8:30,0,0,0.1728,0.0288,0.35856,0.12672,0.036,0,0.02592
2004/10/1 8:45,0,0,0.1728,0.02448,0.4968,0.1296,0,0,0.0216
2004/10/1 9:00,0,0,0.1728,0.02304,0.06768,0.12672,0.03456,0,0.06768
2004/10/1 9:15,0,0,0.17136,0.02448,0.14976,0.12816,0.03744,0,0.06624
2004/10/1 9:30,0,0,0.1728,0.03168,0.49536,0.13104,0,0,0.0216
2004/10/1 9:45,0,0,0.1728,0.03024,0.27792,0.13104,0.036,0,0.04896
2004/10/1 10:00,0,0,0.1728,0.0216,0,0.1296,0,0,0.07776
2004/10/1 10:15,0,0,0.1656,0.02448,0.4608,0.13392,0.03312,0,0.03312
2004/10/1 10:30,0,0,0.1728,0.03456,0.45792,0.13104,0.036,0,0.02304
2004/10/1 10:45,0,0,0.1728,0.0216,0,0.13392,0,0,0.0864
2004/10/1 11:00,0,0,0.1728,0.02304,0.27216,0.12816,0.03168,0,0.03456
2004/10/1 11:15,0,0,0.1656,0.0288,0.5112,0.13104,0.03024,0,0.01872
2004/10/1 11:30,0,0,0.1728,0.02736,0.16704,0.13104,0,0,0.06048
2004/10/1 11:45,0,0,0.17712,0.02304,0.07632,0.1296,0.03168,0,0.07344
2004/10/1 12:00,0,0,0.1728,0.02592,0.49968,0.13248,0.036,0,0.01584
2004/10/1 12:15,0,0,0.1728,0.0288,0.42192,0.12384,0,0,0.036
2004/10/1 12:30,0,0,0.1728,0.0216,0,0.12672,0.036,0,0.07056
2004/10/1 12:45,0,0,0.1728,0.02592,0.34704,0.12672,0,0,0.04464
2004/10/1 13:00,0,0,0.17712,0.0216,0.50688,0.12672,0.03168,0,0.01728
2004/10/1 13:15,0,0,0.17712,0.02304,0.1512,0.13104,0.03312,0,0.06048
2004/10/1 13:30,0,0,0.1728,0.02304,0.11376,0.1296,0,0,0.06336
2004/10/1 13:45,0,0,0.16704,0.0216,0.51696,0.12384,0.0288,0,0.0288
2004/10/1 14:00,0,0,0.16704,0.02304,0.39312,0.13104,0.0288,0,0.03456
2004/10/1 14:15,0,0,0.1728,0.0216,0,0.12816,0,0,0.0864
2004/10/1 14:30,0,0,0.17136,0.02592,0.37296,0.12816,0.036,0,0.03168
2004/10/1 14:45,0,0,0.1728,0.0216,0.5184,0.12816,0,0,0.0216
2004/10/1 15:00,0,0,0.17424,0.0216,0.14256,0.13104,0.03456,0,0.06192
2004/10/1 15:15,0,0,0.1728,0.02448,0.11808,0.12384,0,0,0.07056
2004/10/1 15:30,0,0,0.1728,0.0216,0.50688,0.12672,0.03456,0,0.01728
2004/10/1 15:45,0,0,0.40032,0.0216,0.48528,0.12816,0.03024,0,-0.00576
2004/10/1 16:00,0,0,0.84528,0.0216,0,0.13536,0,0,0.01152
2004/10/1 16:15,0,0,0.8352,0.0216,0.30528,0.12096,0.03024,0,-0.01872
2004/10/1 16:30,0,0,1.01664,0.28944,0.51264,0.12384,0,0,-0.10224
2004/10/1 16:45,0,0,0.69984,0.02592,0.52128,0.12096,0.036,0,-0.0504
2004/10/1 17:00,0,0,0.432,0.02448,0.33408,0.1224,0,0,0.00432
2004/10/1 17:15,0,0,0.45936,0.0216,0,0.11952,0.03456,0,0.02592
2004/10/1 17:30,0,0,0.56304,0.0216,0.44496,0.11664,0.03168,0,-0.03312
2004/10/1 17:45,0,0,0.6048,0.02448,0.50688,0.11376,0,0,-0.04176
2004/10/1 18:00,0,0,0.60048,0.0216,0.33408,0.11808,0.03024,0,-0.0216
2004/10/1 18:15,0,0,1.48896,0.0216,0,0.11808,0,0,-0.08208
2004/10/1 18:30,0,0,1.68336,0.35424,0.46368,0.11952,0.03456,0,-0.19008
2004/10/1 18:45,0,0,0.87552,0.02448,0.50688,0.41328,0,0,-0.0864
2004/10/1 19:00,0,0,0.792,0.48528,0.41472,0.4464,0.03744,0,0.02736
2004/10/1 19:15,0,0,1.14048,1.01232,0,0.43488,0.03168,0,-0.1296
2004/10/1 19:30,0.0072,0,1.6344,1.29312,0.38736,0.2232,0.03312,0,-0.17424
2004/10/1 19:45,0,0,1.78128,0.12384,0.50976,0.22176,0,0,-0.15696
2004/10/1 20:00,0,0,2.35152,0.03168,0.51984,0.31104,0.03312,0,-0.27216
2004/10/1 20:15,0,0,1.99008,0.0288,0.54144,0.24048,0.0288,0,-0.23904
2004/10/1 20:30,0,0,1.97856,0.0216,0.5616,0.2736,0,0,-0.25632
2004/10/1 20:45,0,0,2.19312,0.02592,0.47808,0.62064,0.03456,0,-0.3168
2004/10/1 21:00,0,0,2.38464,0.02448,0.59904,0.64944,0,0,-0.31824
2004/10/1 21:15,0.0072,0,2.2104,0.0288,0.55728,0.468,0.03024,0,-0.27504
2004/10/1 21:30,0.0144,0,1.51056,0.03744,0.54,0.37296,0.03456,0,-0.16992
2004/10/1 21:45,0,0,1.9944,0.02448,0.53568,0.34848,0.23904,0,-0.2664
2004/10/1 22:00,0,0,2.28816,0.02304,0.53856,0.34848,0.03312,0,-0.27504
2004/10/1 22:15,0,0,2.124,0.02736,0.51984,0.35568,1.06992,0,-0.40896
2004/10/1 22:30,0,0,1.53216,0.02304,0.21456,0.3528,0.03456,0,-0.16704
2004/10/1 22:45,0,0,1.34208,0.02304,0.0936,0.34704,0.02304,0,-0.12672
2004/10/1 23:00,0.0504,0,1.65456,0.02736,0.51984,0.31104,0.01296,0,-0.2232
2004/10/1 23:15,0.0288,0,1.86192,0.0216,0.50688,0.2376,0.03312,0,-0.21024
2004/10/1 23:30,0.0792,0,1.6776,0.0216,0.14112,0.2376,0.25344,0,-0.16704
2004/10/1 23:45,0.108,0,1.24848,0.02304,0.21024,0.23472,0.036,0,-0.11376
2004/10/2 0:00,0.108,0,1.23984,0.02448,0.51696,0.23184,0,0,-0.15696
2004/10/2 0:15,0.108,0,1.24272,0.02448,0.48672,0.2304,0.0288,0,-0.14832
2004/10/2 0:30,0.08496,0,0.75744,0.0216,0,0.18576,0.036,0,-0.01584
2004/10/2 0:45,0,0,0.25056,0.0216,0.29088,0.13392,0,0,0.02592
2004/10/2 1:00,0,0,0.27936,0.0216,0.51552,0.13248,0.0288,0,0
2004/10/2 1:15,0,0,0.24912,0.02304,0.28224,0.13392,0,0,0.03312
2004/10/2 1:30,0,0,0.25344,0.0216,0,0.12816,0.03024,0,0.06336
2004/10/2 1:45,0,0,0.25344,0.02736,0.47952,0.13536,0,0,0.00288
2004/10/2 2:00,0,0,0.25632,0.0216,0.51552,0.13248,0.03168,0,-0.00144
2004/10/2 2:15,0,0,0.25488,0.0216,0.06336,0.13248,0.03456,0,0.0504
2004/10/2 2:30,0,0,0.25776,0.02448,0.19584,0.13392,0,0,0.03744
2004/10/2 2:45,0,0,0.24912,0.0216,0.50976,0.13824,0.03456,0,-0.00432
2004/10/2 3:00,0,0,0.25488,0.02592,0.3528,0.13248,0,0,0.0216
2004/10/2 3:15,0,0,0.25488,0.0216,0,0.1368,0.03456,0,0.06192
2004/10/2 3:30,0,0,0.2232,0.02592,0.41328,0.1368,0,0,0.036
2004/10/2 3:45,0,0,0.1728,0.02592,0.504,0.13536,0.03456,0,0.01728
2004/10/2 4:00,0,0,0.1728,0.02304,0.05904,0.1368,0.03456,0,0.07344
2004/10/2 4:15,0,0,0.1728,0.02592,0.19872,0.1368,0,0,0.04176
2004/10/2 4:30,0,0,0.16848,0.0216,0.51552,0.13824,0.03456,0,0.01296
2004/10/2 4:45,0,0,0.1728,0.02592,0.26208,0.1368,0,0,0.05184
2004/10/2 5:00,0,0,0.1656,0.0216,0,0.13824,0.03312,0,0.08352
2004/10/2 5:15,0,0,0.1728,0.02304,0.47808,0.13824,0,0,0.02304
2004/10/2 5:30,0,0,0.1728,0.02448,0.49248,0.13824,0.036,0,0.02016
2004/10/2 5:45,0,0,0.1728,0.0216,0,0.13392,0,0,0.07776
2004/10/2 6:00,0,0,0.17568,0.02736,0.2592,0.1368,0.03312,0,0.04752
2004/10/2 6:15,0,0,0.16416,0.02448,0.50544,0.1368,0.03456,0,0.02448
2004/10/2 6:30,0,0,0.2016,0.0288,0.18288,0.13536,0,0,0.06336
2004/10/2 6:45,0,0,0.60048,0.35424,0.08064,0.13536,0.38016,0,-0.0936
2004/10/2 7:00,0,0,1.8288,2.53872,0.51264,0.14544,0.54,0,-0.1944
2004/10/2 7:15,0.0216,0,1.69632,0.02304,0.5184,0.25488,0.51696,0,-0.24336
2004/10/2 7:30,0,0,1.69056,0.0216,0.15552,0.43632,0.576,0,-0.21456
2004/10/2 7:45,0,0,1.57968,0.31392,0.13104,0.30528,0.396,0,-0.2088
2004/10/2 8:00,0,0,1.44576,0.02736,0.50688,0.24768,0.036,0,-0.15264
2004/10/2 8:15,0,0,1.5696,0.0216,0.4536,0.22608,0.03888,0,-0.15408
2004/10/2 8:30,0.06336,0,1.26864,0.0216,0,0.64944,0,0,-0.108
2004/10/2 8:45,0,0,0.86256,0.02304,0.33552,0.49968,0.03168,0,-0.1008
2004/10/2 9:00,0,0,0.17568,0.02304,0.50544,0.29664,0,0,-0.00432
2004/10/2 9:15,0,0,0.1728,0.02304,0.1224,0.22608,0.036,0,0.04752
2004/10/2 9:30,0,0,0.17424,0.02448,0.14832,0.22464,0.03456,0,0.03744
2004/10/2 9:45,0,0,0.1728,0.02448,0.51552,0.22464,0,0,0.00288
2004/10/2 10:00,0,0,0.16848,0.02592,0.25056,0.22608,0.03312,0,0.036
2004/10/2 10:15,0,0,0.1728,0.0216,0.01152,0.22464,0,0,0.0648
2004/10/2 10:30,0,0,0.1728,0.02448,0.49968,0.22608,0.036,0,-0.00144
2004/10/2 10:45,0,0,0.16704,0.02736,0.4104,0.22464,0.03024,0,0.01728
2004/10/2 11:00,0,0,0.1728,0.0216,0,0.22608,0,0,0.0648
2004/10/2 11:15,0,0,0.17568,0.02304,0.36864,0.22464,0.03312,0,0.02448
2004/10/2 11:30,0,0,0.1728,0.02736,0.49968,0.22464,0,0,0.00432
2004/10/2 11:45,0,0,0.18432,0.02304,0.01584,0.22464,0.036,0,0.05184
2004/10/2 12:00,0,0,0.17424,0.0288,0.23328,0.2304,0.03456,0,0.0288
2004/10/2 12:15,0,0,0.1728,0.03456,0.50544,0.22608,0,0,0.00144
2004/10/2 12:30,0,0,0.1656,0.02592,0.13248,0.22608,0.03168,0,0.03888
2004/10/2 12:45,0,0,0.1728,0.0216,0.12816,0.22176,0,0,0.05904
2004/10/2 13:00,0,0,0.84816,0.20304,0.50832,0.23328,0.03312,0,-0.10224
2004/10/2 13:15,0,0,0.1944,0.28224,0.49824,0.2376,0.03744,0,-0.0216
2004/10/2 13:30,0,0,0.1728,0.02304,0,0.22896,0,0,0.05904
2004/10/2 13:45,0,0,0.1728,0.02448,0.30528,0.22896,0.03744,0,0.01296
2004/10/2 14:00,0,0,0.288,0.02592,0.50688,0.22752,0,0,-0.01008
2004/10/2 14:15,0,0,1.07136,0.0216,0.27072,0.22464,0.03456,0,-0.07488
2004/10/2 14:30,0,0,1.00944,0.02304,0.07632,0.37008,0,0,-0.0648
2004/10/2 14:45,0,0,1.0008,0.02304,0.51552,0.31968,0.02736,0,-0.1224
2004/10/2 15:00,0,0,0.99792,0.02304,0.33408,0.22464,0.036,0,-0.07344
2004/10/2 15:15,0,0,1.0512,0.0216,0.06912,0.22608,0,0,-0.04896
2004/10/2 15:30,0,0,1.17792,0.0288,0.5184,0.22896,0.03456,0,-0.12528
2004/10/2 15:45,0,0,1.18944,0.02736,0.49536,0.22464,0,0,-0.12096
2004/10/2 16:00,0,0,1.11312,0.0216,0,0.22752,0.03456,0,-0.04464
2004/10/2 16:15,0,0,0.99648,0.02304,0.26784,0.22896,0,0,-0.0576
2004/10/2 16:30,0,0,0.9936,0.0216,0.51264,0.22896,0.03744,0,-0.10224
2004/10/2 16:45,0,0,0.99648,0.02736,0.5544,0.22464,0,0,-0.12096
2004/10/2 17:00,0,0,0.8856,0.02736,0.56016,0.22464,0.036,0,-0.11952
2004/10/2 17:15,0,0,0.65088,0.02448,0.46368,0.396,0.03456,0,-0.10224
2004/10/2 17:30,0,0,0.53856,0.02592,0.59184,0.44064,0,0,-0.08064
2004/10/2 17:45,0,0,0.76032,0.03168,0.55008,0.47376,0.03312,0,-0.10944
2004/10/2 18:00,0,0,1.61568,0.02448,0.53568,0.43632,0,0,-0.20304
2004/10/2 18:15,0.0504,0,1.76112,0.03312,0.52128,0.4248,0.0288,0,-0.23184
2004/10/2 18:30,0.036,0,2.19888,0.0216,0.51264,0.2232,0.03168,0,-0.2088
2004/10/2 18:45,0,0,2.16144,0.02304,0.3024,0.34128,0,0,-0.1728
2004/10/2 19:00,0,0,1.872,0.0216,0,0.44208,0.03312,0,-0.12672
2004/10/2 19:15,0,0,1.42848,0.03168,0.468,0.40608,0.03456,0,-0.13104
2004/10/2 19:30,0,0,1.64304,0.02736,0.51552,0.50976,0,0,-0.18432
2004/10/2 19:45,0,0,1.7424,0.02304,0.42768,0.6912,0.03168,0,-0.21312
2004/10/2 20:00,0,0,1.76112,0.0216,0,0.6696,0,0,-0.15264
2004/10/2 20:15,0,0,1.81872,0.02592,0.49824,0.37584,0.03312,0,-0.18144
2004/10/2 20:30,0,0,2.1312,0.02736,0.50544,0.39888,0.02736,0,-0.19872
2004/10/2 20:45,0,0,2.1672,0.02592,0.06768,0.40608,0.00576,0,-0.13824
2004/10/2 21:00,0,0,2.09376,0.02304,0.48672,0.42624,0.03168,0,-0.17136
2004/10/2 21:15,0,0,2.10384,0.03168,0.51696,0.42336,0,0,-0.18288
2004/10/2 21:30,0,0,2.12544,0.02304,0.35568,0.42048,0.03312,0,-0.16272
2004/10/2 21:45,0,0,2.09952,0.0216,0,0.35568,0,0,-0.1152
2004/10/2 22:00,0.072,0,1.9368,0.0288,0.45936,0.2232,0.036,0,-0.13248
2004/10/2 22:15,0.036,0,1.88496,0.0288,0.50688,0.22464,0.828,0,-0.2304
2004/10/2 22:30,0.07344,0,1.44288,0.0216,0.30096,0.22464,0.16416,0,-0.13824
2004/10/2 22:45,0.07488,0,2.22048,0.0216,0,0.29376,0.03024,0,-0.24192
2004/10/2 23:00,0.0072,0,1.4688,0.02448,0.48096,0.30096,0.29664,0,-0.21888
2004/10/2 23:15,0,0,1.18512,0.0216,0.50688,0.22752,0.03312,0,-0.1296
2004/10/2 23:30,0,0,0.56304,0.0216,0.26784,0.39744,0.03024,0,-0.04176
2004/10/2 23:45,0,0,0.5688,0.0216,0,0.38016,0.036,0,-0.02304
2004/10/3 0:00,0,0,0.5184,0.02448,0.50688,0.43488,0,0,-0.0864
2004/10/3 0:15,0,0,0.44352,0.0216,0.50688,0.41904,0.03024,0,-0.06912
2004/10/3 0:30,0,0,0.25632,0.0216,0.13824,0.43776,0.03168,0,0.00864
2004/10/3 0:45,0,0,0.25344,0.02592,0.10656,0.43488,0,0,0.00432
2004/10/3 1:00,0,0,0.26208,0.0216,0.51696,0.42912,0.03456,0,-0.04464
2004/10/3 1:15,0,0,0.25632,0.02592,0.42912,0.4392,0,0,-0.02592
2004/10/3 1:30,0,0,0.26208,0.0216,0,0.31968,0.03168,0,0.02304
2004/10/3 1:45,0,0,0.2592,0.02448,0.31536,0.22608,0.03456,0,0.01584
2004/10/3 2:00,0,0,0.26064,0.02304,0.51696,0.22464,0,0,-0.00864
2004/10/3 2:15,0,0,0.26064,0.02304,0.1656,0.22608,0.036,0,0.02592
2004/10/3 2:30,0,0,0.2592,0.0216,0.08352,0.22464,0,0,0.04032
2004/10/3 2:45,0,0,0.28224,0.02304,0.50256,0.22464,0.03024,0,-0.01152
2004/10/3 3:00,0,0,0.26352,0.03168,0.35712,0.22464,0.02736,0,0.00864
2004/10/3 3:15,0,0,0.17712,0.0216,0,0.22752,0.00864,0,0.06192
2004/10/3 3:30,0,0,0.17712,0.02592,0.39456,0.22608,0.03168,0,0.0144
2004/10/3 3:45,0,0,0.1728,0.03456,0.49248,0.22608,0,0,0.00864
2004/10/3 4:00,0,0,0.17424,0.0216,0.02448,0.22608,0.03456,0,0.06192
2004/10/3 4:15,0,0,0.1728,0.02592,0.216,0.22608,0,0,0.03456
2004/10/3 4:30,0,0,0.16704,0.0288,0.5112,0.22752,0.03024,0,0.00432
2004/10/3 4:45,0,0,0.17136,0.0288,0.19872,0.22464,0.03744,0,0.03888
2004/10/3 5:00,0,0,0.1728,0.02304,0.0432,0.22896,0,0,0.06624
2004/10/3 5:15,0,0,0.17424,0.02736,0.49392,0.22752,0.036,0,0.00432
2004/10/3 5:30,0,0,0.1728,0.03456,0.35856,0.22464,0,0,0.02592
2004/10/3 5:45,0,0,0.17424,0.0216,0,0.22752,0.03456,0,0.04896
2004/10/3 6:00,0,0,0.17712,0.02448,0.37296,0.22896,0.03312,0,0.02304
2004/10/3 6:15,0,0,0.1728,0.03744,0.4896,0.22608,0,0,0.01296
2004/10/3 6:30,0,0,0.17712,0.02304,0.0072,0.22752,0.03168,0,0.05472
2004/10/3 6:45,0,0,0.17568,0.02448,0.216,0.22896,0.03312,0,0.03456
2004/10/3 7:00,0,0,0.1728,0.03168,0.50256,0.23328,0,0,0.00576
2004/10/3 7:15,0,0,0.25776,0.02304,0.15696,0.22464,0.03456,0,0.03456
2004/10/3 7:30,0,0,0.3024,0.02304,0.07344,0.22464,0,0,0.06048
2004/10/3 7:45,0,0,0.74448,1.73808,0.54144,0.22176,0.03312,0,-0.18576
2004/10/3 8:00,0,0,1.3608,1.01952,0.5256,0.2232,0.03456,0,-0.18144
2004/10/3 8:15,0,0,1.51632,0.02448,0.1224,0.22176,0,0,-0.08496
2004/10/3 8:30,0,0,1.59408,0.0216,0.12672,0.2232,0.12672,0,-0.10512
2004/10/3 8:45,0,0,1.67184,0.02736,0.50112,0.26352,0.504,0,-0.216
2004/10/3 9:00,0.0072,0,1.95552,0.02304,0.27792,0.29664,0.23616,0,-0.18144
2004/10/3 9:15,0,0,1.57104,0.34992,0.0216,0.35568,2.49984,0,-0.52416
2004/10/3 9:30,0,0,1.188,0.02448,0.48528,0.38304,0.70848,0,-0.20592
2004/10/3 9:45,0,0,0.53856,0.02736,0.47664,0.41472,0.03312,0,-0.03744
2004/10/3 10:00,0,0,0.75888,0.0216,0,0.38592,0.0432,0,-0.00144
2004/10/3 10:15,0,0,0.76176,0.0288,0.288,0.3528,0.03168,0,-0.05904
2004/10/3 10:30,0,0,0.80352,0.02304,0.51696,0.33984,0,0,-0.0648
2004/10/3 10:45,0,0,0.98928,0.02448,0.17712,0.23184,0.03168,0,-0.03168
2004/10/3 11:00,0,0,0.78624,0.02304,0.08208,0.44928,0.03168,0,-0.04608
2004/10/3 11:15,0,0,0.77904,0.02448,0.50256,0.49392,0,0,-0.09216
2004/10/3 11:30,0,0,0.77472,0.03312,0.39168,0.4896,0.03168,0,-0.08064
2004/10/3 11:45,0,0,0.75168,0.0216,0,0.46224,0.03168,0,-0.02448
2004/10/3 12:00,0,0,0.85104,0.92448,0.37296,0.37008,0,0,-0.05472
2004/10/3 12:15,0,0,1.07712,1.73232,0.52992,0.3672,0.03456,0,-0.08352
2004/10/3 12:30,0,0,1.18944,0.1152,0.51264,0.3672,0.03312,0,-0.08496
2004/10/3 12:45,0,0,0.94176,0.03168,0.55728,0.38448,0,0,-0.11376
2004/10/3 13:00,0,0,0.7992,1.06992,0.56736,0.39312,0.03312,0,-0.108
2004/10/3 13:15,0,0,0.7416,0.47088,0.50112,0.39456,0.036,0,-0.06336
2004/10/3 13:30,0,0,0.91872,0.02448,0.58896,0.4104,0,0,-0.10944
2004/10/3 13:45,0,0,1.1736,0.0288,0.5544,0.40896,0.036,0,-0.1152
2004/10/3 14:00,0,0,0.99072,0.036,0.54,0.29808,0.03168,0,-0.08064
2004/10/3 14:15,0,0,1.0008,0.02448,0.52848,0.27072,0.03168,0,-0.06912
2004/10/3 14:30,0,0,1.00656,0.0216,0.5328,0.27216,0.036,0,-0.06912
2004/10/3 14:45,0,0,1.0152,0.0216,0.08208,0.27072,0,0,-0.01728
2004/10/3 15:00,0,0,1.01664,0.02592,0.21888,0.26928,0.03456,0,-0.03168
2004/10/3 15:15,0,0,0.86544,0.03312,0.51408,0.27072,0,0,-0.06768
2004/10/3 15:30,0,0,0.47808,0.02304,0.3528,0.27216,0.03456,0,-0.03312
2004/10/3 15:45,0,0,0.8496,0.0216,0,0.26928,0.036,0,-0.01728
2004/10/3 16:00,0,0,0.864,0.02304,0.40464,0.26496,0,0,-0.05328
2004/10/3 16:15,0,0,0.9648,0.0216,0.50976,0.24768,0.03312,0,-0.07488
2004/10/3 16:30,0,0,1.14912,0.02304,0.18864,0.27216,0.03312,0,-0.05184
2004/10/3 16:45,0,0,1.2384,0.02304,0.13536,0.27072,0,0,-0.04896
2004/10/3 17:00,0,0,1.26864,0.02448,0.5328,0.28656,0.03024,0,-0.10368
2004/10/3 17:15,0,0,1.34208,0.02304,0.52992,0.4392,0.03456,0,-0.12528
2004/10/3 17:30,0,0,1.68624,0.036,0.52128,0.56448,0,0,-0.15696
2004/10/3 17:45,0,0,2.05344,0.02448,0.29232,0.40752,0.03312,0,-0.16416
2004/10/3 18:00,0,0,1.65456,0.0216,0,0.34992,0,0,-0.08784
2004/10/3 18:15,0,0,1.74096,0.02304,0.4248,0.34992,0.03024,0,-0.15696
2004/10/3 18:30,0,0,2.016,0.0216,0.51696,0.68832,0.03024,0,-0.22752
2004/10/3 18:45,0,0,1.95696,0.02448,0.51552,0.63648,0.03024,0,-0.22896
2004/10/3 19:00,0,0,1.91664,0.02736,0.50688,0.22608,0.00288,0,-0.1728
2004/10/3 19:15,0,0,1.90224,0.0216,0.02736,0.22608,0.03168,0,-0.10224
2004/10/3 19:30,0,0,1.3896,0.02592,0.2808,0.68832,0,0,-0.16416
2004/10/3 19:45,0,0,0.67824,0.0216,0.5184,0.74592,0.03168,0,-0.14112
2004/10/3 20:00,0,0,0.69408,0.0216,0.38592,0.5904,0.03168,0,-0.09936
2004/10/3 20:15,0,0,0.67392,0.0216,0,0.3888,0.03312,0,-0.03024
2004/10/3 20:30,0,0,0.6696,0.02304,0.42768,0.3816,0,0,-0.08208
2004/10/3 20:45,0.036,0,1.60128,0.0216,0.5184,0.3096,0.03168,0,-0.21888
2004/10/3 21:00,0.0648,0,2.89008,0.0216,0.21744,0.2736,0.036,0,-0.31536
2004/10/3 21:15,0.0576,0,2.7432,0.02448,0.09936,0.27936,0,0,-0.2664
2004/10/3 21:30,0.0792,0,2.48256,0.02304,0.504,0.26928,0.03312,0,-0.2952
2004/10/3 21:45,0.0936,0,2.28672,0.0288,0.50976,0.27072,0,0,-0.25056
2004/10/3 22:00,0,0,1.76976,0.0216,0,0.35136,0.036,0,-0.11808
2004/10/3 22:15,0,0,1.65312,0.02448,0.31392,0.35568,0.03024,0,-0.15408
2004/10/3 22:30,0,0,1.53936,0.03024,0.49824,0.35424,0,0,-0.16704
2004/10/3 22:45,0.0576,0,1.96848,0.0288,0.21456,0.35568,0.03744,0,-0.16704
2004/10/3 23:00,0,0,1.97568,0.02304,0.08208,0.35568,0.03456,0,-0.1728
2004/10/3 23:15,0.036,0,2.07504,0.0216,0.51552,0.36144,0,0,-0.2304
2004/10/3 23:30,0.036,0,1.60848,0.0288,0.48096,0.35856,0.03168,0,-0.16992
2004/10/3 23:45,0,0,1.21392,0.0216,0,0.35136,0.23616,0,-0.10368
2004/10/4 0:00,0,0,0.28656,0.02304,0.31248,0.25776,0.0936,0,-0.01152
2004/10/4 0:15,0,0,0.1656,0.03168,0.50688,0.23328,0.03024,0,0.01872
2004/10/4 0:30,0,0,0.1656,0.02592,0.15264,0.23184,0.03312,0,0.0648
2004/10/4 0:45,0,0,0.1728,0.02304,0.1152,0.23184,0,0,0.072
2004/10/4 1:00,0,0,0.1656,0.0288,0.49968,0.23328,0.03024,0,0.02592
2004/10/4 1:15,0,0,0.17568,0.03168,0.2952,0.23472,0.03312,0,0.02736
2004/10/4 1:30,0,0,0.1728,0.0216,0,0.23328,0,0,0.06336
2004/10/4 1:45,0,0,0.17424,0.02592,0.47952,0.23184,0.03456,0,-0.00432
2004/10/4 2:00,0,0,0.17568,0.03024,0.40608,0.23472,0.03312,0,0.01296
2004/10/4 2:15,0,0,0.1728,0.0216,0,0.23328,0,0,0.0648
2004/10/4 2:30,0,0,0.1656,0.02736,0.32256,0.23328,0.03312,0,0.03312
2004/10/4 2:45,0,0,0.17712,0.02448,0.50112,0.23472,0.03024,0,0.00576
2004/10/4 3:00,0,0,0.1728,0.0216,0.03312,0.23328,0,0,0.06048
2004/10/4 3:15,0,0,0.18,0.02304,0.19728,0.23184,0.03024,0,0.04752
2004/10/4 3:30,0,0,0.1728,0.02592,0.49248,0.23328,0.036,0,0.00432
2004/10/4 3:45,0,0,0.1728,0.0216,0.13392,0.23328,0,0,0.05472
2004/10/4 4:00,0,0,0.17856,0.0216,0.09504,0.23184,0.0288,0,0.03744
2004/10/4 4:15,0,0,0.1728,0.03168,0.4968,0.23328,0.036,0,0.01296
2004/10/4 4:30,0,0,0.1728,0.02304,0.2232,0.23472,0,0,0.04176
2004/10/4 4:45,0,0,0.17568,0.0216,0,0.23472,0.03456,0,0.0648
2004/10/4 5:00,0,0,0.1728,0.03168,0.45648,0.23328,0.03744,0,0.01584
2004/10/4 5:15,0,0,0.1728,0.0216,0.33264,0.23328,0,0,0.03456
2004/10/4 5:30,0,0,0.18576,0.0216,0,0.23328,0.03312,0,0.06624
2004/10/4 5:45,0.0216,0,0.52128,0.02592,0.36144,0.23184,0.03312,0,-0.01296
2004/10/4 6:00,0,0,1.9296,0.02592,0.40464,0.23184,0,0,-0.16992
2004/10/4 6:15,0,0,1.81008,0.97344,0.00576,0.23904,0.03168,0,-0.08928
2004/10/4 6:30,0,0,1.82016,0.46944,0.30672,0.22464,0.03168,0,-0.216
2004/10/4 6:45,0.108,0,2.1672,0.60624,0.51408,0.22464,0,0,-0.2376
2004/10/4 7:00,0.0144,0,0.85536,2.56464,0.23904,0.23472,0.036,0,-0.16992
2004/10/4 7:15,0,0,0.48384,0.73584,0.06048,0.2232,0.03456,0,0.04464
2004/10/4 7:30,0.0216,0,0.72288,0.06624,0.50256,0.25344,0.036,0,-0.03456
2004/10/4 7:45,0.0504,0,0.9576,0.02736,0.30528,0.29232,0,0,-0.04608
2004/10/4 8:00,0.072,0,0.8352,0.0216,0,0.12672,0.16704,0,-0.03312
2004/10/4 8:15,0,0,0.34848,0.02448,0.42624,0.12528,0.03024,0,0.036
2004/10/4 8:30,0,0,0.26208,0.03456,0.41184,0.12384,0.036,0,0.02448
2004/10/4 8:45,0,0,0.1728,0.0216,0,0.12384,0,0,0.0864
2004/10/4 9:00,0,0,0.1656,0.02736,0.29664,0.12528,0.03024,0,0.04608
2004/10/4 9:15,0,0,0.17568,0.02592,0.51408,0.12528,0.03456,0,0.01728
2004/10/4 9:30,0,0,0.1728,0.02304,0.5688,0.12528,0,0,-0.0144
2004/10/4 9:45,0,0,0.1728,0.0216,0.5832,0.12384,0.036,0,-0.0144
2004/10/4 10:00,0,0,0.17136,0.02592,0.5112,0.12384,0.036,0,0.00144
2004/10/4 10:15,0,0,0.1728,0.02736,0.57024,0.12528,0,0,0.0216
2004/10/4 10:30,0,0,0.1656,0.02304,0.54144,0.12384,0.03168,0,0.01872
2004/10/4 10:45,0,0,0.16848,0.02736,0.53424,0.12528,0.03024,0,0.01872
2004/10/4 11:00,0,0,0.1728,0.03024,0.35568,0.12816,0,0,0.0432
2004/10/4 11:15,0,0,0.1728,0.0216,0,0.12384,0.036,0,0.08208
2004/10/4 11:30,0,0,0.17856,0.02448,0.4176,0.12672,0.03024,0,0.036
2004/10/4 11:45,0,0,0.1728,0.0216,0.5184,0.13104,0,0,0.0216
2004/10/4 12:00,0,0,0.1728,0.0216,0.24624,0.12816,0.036,0,0.04896
2004/10/4 12:15,0,0,0.17568,0.0216,0,0.12528,0.03312,0,0.08064
2004/10/4 12:30,0,0,0.1728,0.02448,0.48384,0.12384,0,0,0.0216
2004/10/4 12:45,0,0,0.17424,0.02448,0.51552,0.12384,0.03168,0,0.02016
2004/10/4 13:00,0,0,0.17712,0.02304,0.04176,0.12672,0.03168,0,0.06624
2004/10/4 13:15,0,0,0.1728,0.02304,0.21168,0.12672,0,0,0.04752
2004/10/4 13:30,0,0,0.16848,0.0216,0.50688,0.12528,0.0288,0,0.01872
2004/10/4 13:45,0,0,0.1728,0.02448,0.29664,0.12384,0.036,0,0.04752
2004/10/4 14:00,0,0,0.1728,0.0216,0,0.12528,0,0,0.07488
2004/10/4 14:15,0,0,0.1728,0.02304,0.45792,0.12528,0.03744,0,0.02448
2004/10/4 14:30,0,0,0.1728,0.02304,0.50544,0.1296,0,0,0.0216
2004/10/4 14:45,0,0,0.17424,0.0216,0.02592,0.12816,0.03456,0,0.0792
2004/10/4 15:00,0,0,0.17712,0.02448,0.2016,0.12528,0.03168,0,0.04464
2004/10/4 15:15,0,0,0.1728,0.02304,0.51696,0.1224,0,0,0.0216
2004/10/4 15:30,0,0,0.20592,0.03024,0.2376,0.12384,0.03312,0,0.03888
2004/10/4 15:45,0,0,0.77904,0.0216,0,0.12384,0.03456,0,0.01584
2004/10/4 16:00,0,0,0.68544,0.02592,0.48096,0.12672,0,0,-0.02448
2004/10/4 16:15,0,0,0.58608,0.02736,0.51264,0.13104,0.03312,0,-0.00432
2004/10/4 16:30,0,0,0.576,0.252,0.04176,0.1296,0,0,-0.00144